• In Belarus
  • List of Countries
  • For 7 days
  • Water Temperature
  • Satellite Maps
  • Weather Map
  • Weather Widgets
  • user-avatar
    Login

    Hourly Weather Ganja

    Today, 15 December, Saturday

    Time Temperature Precipitation Wind Pressure Humidity
    00:00 +3°C° 0 mm 3 mps 732 mmHg 54%
    01:00 +3°C° 0 mm 3 mps 732 mmHg 55%
    02:00 +2°C° 0 mm 3 mps 732 mmHg 55%
    03:00 +2°C° 0 mm 3 mps 731 mmHg 55%
    04:00 +2°C° 0 mm 3 mps 731 mmHg 55%
    05:00 +2°C° 0 mm 3 mps 732 mmHg 56%
    06:00 +2°C° 0 mm 3 mps 732 mmHg 57%
    07:00 +3°C° 0 mm 3 mps 732 mmHg 55%
    08:00 +4°C° 0 mm 3 mps 732 mmHg 53%
    09:00 +4°C° 0 mm 3 mps 732 mmHg 51%
    10:00 +6°C° 0 mm 2 mps 732 mmHg 49%
    11:00 +7°C° 0 mm 2 mps 732 mmHg 46%
    12:00 +8°C° 0 mm 2 mps 732 mmHg 44%
    13:00 +8°C° 0 mm 2 mps 732 mmHg 45%
    14:00 +8°C° 0 mm 2 mps 731 mmHg 45%
    15:00 +9°C° 0 mm 2 mps 731 mmHg 46%
    16:00 +8°C° 0 mm 2 mps 732 mmHg 50%
    17:00 +8°C° 0 mm 1 mps 732 mmHg 53%
    18:00 +7°C° 0 mm 1 mps 732 mmHg 57%
    19:00 +7°C° 0 mm 1 mps 732 mmHg 57%
    20:00 +5°C° 0 mm 2 mps 732 mmHg 57%
    21:00 +5°C° 0 mm 2 mps 732 mmHg 56%
    22:00 +6°C° 0 mm 1 mps 732 mmHg 56%
    23:00 +6°C° 0 mm 1 mps 732 mmHg 56%

    Tomorrow, 16 December, Sunday

    Time Temperature Precipitation Wind Pressure Humidity
    00:00 +6°C° 0 mm 1 mps 731 mmHg 55%
    01:00 +5°C° 0 mm 2 mps 731 mmHg 55%
    02:00 +5°C° 0 mm 2 mps 731 mmHg 55%
    03:00 +5°C° 0 mm 2 mps 731 mmHg 55%
    04:00 +5°C° 0 mm 2 mps 731 mmHg 55%
    05:00 +5°C° 0 mm 2 mps 731 mmHg 55%
    06:00 +5°C° 0 mm 2 mps 730 mmHg 56%
    07:00 +5°C° 0 mm 2 mps 731 mmHg 54%
    08:00 +6°C° 0 mm 2 mps 731 mmHg 52%
    09:00 +7°C° 0 mm 2 mps 731 mmHg 50%
    10:00 +8°C° 0 mm 2 mps 731 mmHg 47%
    11:00 +9°C° 0 mm 2 mps 730 mmHg 45%
    12:00 +12°C° 0 mm 2 mps 730 mmHg 42%
    13:00 +12°C° 0 mm 2 mps 730 mmHg 43%
    14:00 +12°C° 0 mm 1 mps 730 mmHg 44%
    15:00 +12°C° 0 mm 1 mps 730 mmHg 45%
    16:00 +10°C° 0 mm 1 mps 730 mmHg 49%
    17:00 +9°C° 0 mm 1 mps 731 mmHg 53%
    18:00 +7°C° 0 mm 2 mps 731 mmHg 56%
    19:00 +7°C° 0 mm 2 mps 731 mmHg 57%
    20:00 +6°C° 0 mm 2 mps 731 mmHg 58%
    21:00 +5°C° 0 mm 3 mps 731 mmHg 60%
    22:00 +6°C° 0 mm 2 mps 731 mmHg 63%
    23:00 +6°C° 0 mm 2 mps 731 mmHg 66%

    Day after tomorrow, 17 December, Monday

    Time Temperature Precipitation Wind Pressure Humidity
    00:00 +5°C° 0 mm 2 mps 731 mmHg 70%
    01:00 +5°C° 0 mm 2 mps 731 mmHg 73%
    02:00 +5°C° 0 mm 2 mps 732 mmHg 77%
    03:00 +5°C° 0 mm 1 mps 732 mmHg 81%
    04:00 +5°C° 0 mm 1 mps 731 mmHg 82%
    05:00 +5°C° 0 mm 1 mps 731 mmHg 84%
    06:00 +5°C° 0 mm 1 mps 731 mmHg 86%
    07:00 +5°C° 0 mm 1 mps 731 mmHg 84%
    08:00 +6°C° 0 mm 1 mps 731 mmHg 83%
    09:00 +6°C° 0 mm 1 mps 731 mmHg 81%
    10:00 +7°C° 0 mm 1 mps 731 mmHg 80%
    11:00 +6°C° 0 mm 2 mps 731 mmHg 78%
    12:00 +7°C° 0 mm 2 mps 730 mmHg 77%
    13:00 +6°C° 0 mm 2 mps 730 mmHg 78%
    14:00 +6°C° 0 mm 2 mps 730 mmHg 80%
    15:00 +6°C° 0 mm 2 mps 729 mmHg 81%
    16:00 +6°C° 0 mm 2 mps 730 mmHg 84%
    17:00 +6°C° 0 mm 1 mps 730 mmHg 87%
    18:00 +6°C° 0 mm 1 mps 730 mmHg 91%
    19:00 +6°C° 0 mm 1 mps 730 mmHg 91%
    20:00 +6°C° 0 mm 1 mps 731 mmHg 92%
    21:00 +5°C° 0 mm 1 mps 731 mmHg 92%
    22:00 +5°C° 0 mm 1 mps 731 mmHg 93%
    23:00 +5°C° 0 mm 1 mps 730 mmHg 93%

    18 December, Tuesday

    Time Temperature Precipitation Wind Pressure Humidity
    00:00 +5°C° 0 mm 1 mps 730 mmHg 93%
    01:00 +5°C° 0.2 mm 1 mps 730 mmHg 94%
    02:00 +5°C° 0.2 mm 1 mps 730 mmHg 94%
    03:00 +5°C° 0.2 mm 1 mps 730 mmHg 94%
    04:00 +5°C° 0.2 mm 1 mps 730 mmHg 94%
    05:00 +5°C° 0.2 mm 1 mps 730 mmHg 94%
    06:00 +5°C° 0.2 mm 1 mps 729 mmHg 94%
    07:00 +5°C° 0.3 mm 1 mps 730 mmHg 93%
    08:00 +5°C° 0.3 mm 1 mps 730 mmHg 92%
    09:00 +5°C° 0.3 mm 1 mps 730 mmHg 92%
    10:00 +6°C° 0.1 mm 1 mps 730 mmHg 90%
    11:00 +6°C° 0.1 mm 1 mps 729 mmHg 88%
    12:00 +6°C° 0.1 mm 1 mps 729 mmHg 86%
    13:00 +6°C° 0.1 mm 1 mps 729 mmHg 87%
    14:00 +6°C° 0.1 mm 1 mps 729 mmHg 87%
    15:00 +6°C° 0.1 mm 1 mps 729 mmHg 87%
    16:00 +6°C° 0 mm 1 mps 729 mmHg 89%
    17:00 +6°C° 0 mm 1 mps 729 mmHg 91%
    18:00 +6°C° 0 mm 1 mps 730 mmHg 93%
    19:00 +5°C° 0 mm 1 mps 730 mmHg 93%
    20:00 +5°C° 0 mm 1 mps 730 mmHg 93%
    21:00 +5°C° 0 mm 1 mps 730 mmHg 94%
    22:00 +5°C° 0 mm 1 mps 730 mmHg 94%
    23:00 +4°C° 0 mm 0 mps 730 mmHg 94%

    19 December, Wednesday

    Time Temperature Precipitation Wind Pressure Humidity
    00:00 +4°C° 0 mm 0 mps 730 mmHg 94%
    01:00 +4°C° 0 mm 0 mps 730 mmHg 93%
    02:00 +4°C° 0 mm 0 mps 730 mmHg 92%
    03:00 +4°C° 0 mm 0 mps 730 mmHg 91%
    04:00 +4°C° 0 mm 0 mps 730 mmHg 90%
    05:00 +4°C° 0 mm 0 mps 730 mmHg 90%
    06:00 +3°C° 0 mm 0 mps 730 mmHg 89%
    07:00 +4°C° 0 mm 0 mps 730 mmHg 86%
    08:00 +5°C° 0 mm 0 mps 730 mmHg 84%
    09:00 +6°C° 0 mm 1 mps 730 mmHg 81%
    10:00 +7°C° 0 mm 1 mps 730 mmHg 79%
    11:00 +7°C° 0 mm 1 mps 729 mmHg 77%
    12:00 +8°C° 0 mm 1 mps 729 mmHg 75%
    13:00 +8°C° 0 mm 1 mps 729 mmHg 76%
    14:00 +8°C° 0 mm 1 mps 728 mmHg 76%
    15:00 +8°C° 0 mm 1 mps 728 mmHg 76%
    16:00 +7°C° 0 mm 1 mps 728 mmHg 80%
    17:00 +6°C° 0 mm 1 mps 729 mmHg 84%
    18:00 +6°C° 0 mm 1 mps 729 mmHg 88%
    19:00 +5°C° 0 mm 1 mps 729 mmHg 88%
    20:00 +5°C° 0 mm 1 mps 729 mmHg 88%
    21:00 +5°C° 0 mm 1 mps 729 mmHg 88%
    22:00 +5°C° 0 mm 1 mps 729 mmHg 88%
    23:00 +4°C° 0 mm 0 mps 728 mmHg 88%

    20 December, Thursday

    Time Temperature Precipitation Wind Pressure Humidity
    00:00 +4°C° 0 mm 0 mps 728 mmHg 88%
    01:00 +4°C° 0 mm 0 mps 728 mmHg 88%
    02:00 +5°C° 0 mm 1 mps 728 mmHg 88%
    03:00 +5°C° 0 mm 1 mps 727 mmHg 88%
    04:00 +5°C° 0 mm 1 mps 727 mmHg 87%
    05:00 +5°C° 0 mm 1 mps 727 mmHg 86%
    06:00 +5°C° 0 mm 1 mps 727 mmHg 85%
    07:00 +6°C° 0 mm 1 mps 727 mmHg 82%
    08:00 +6°C° 0 mm 1 mps 727 mmHg 80%
    09:00 +7°C° 0 mm 1 mps 727 mmHg 77%
    10:00 +7°C° 0 mm 1 mps 726 mmHg 74%
    11:00 +8°C° 0 mm 1 mps 726 mmHg 72%
    12:00 +8°C° 0 mm 1 mps 725 mmHg 70%
    13:00 +9°C° 0.1 mm 1 mps 725 mmHg 70%
    14:00 +9°C° 0.1 mm 1 mps 725 mmHg 70%
    15:00 +9°C° 0.1 mm 1 mps 725 mmHg 70%
    16:00 +8°C° 0.1 mm 1 mps 725 mmHg 73%
    17:00 +8°C° 0.1 mm 1 mps 725 mmHg 75%
    18:00 +7°C° 0.1 mm 1 mps 726 mmHg 78%
    19:00 +7°C° 0.1 mm 1 mps 726 mmHg 78%
    20:00 +6°C° 0.1 mm 2 mps 726 mmHg 78%
    21:00 +6°C° 0.1 mm 2 mps 727 mmHg 79%
    22:00 +6°C° 0.1 mm 2 mps 727 mmHg 79%
    23:00 +6°C° 0.1 mm 2 mps 727 mmHg 79%
    Show more